Regional Weather Roundup
Issued by NWS

Home | Current Version | Previous Version | Text Only | Print | Product List | Glossary On
Versions: 1 2 3 4 5 6 7 8 9 10 11 12 13 14 15 16 17 18 19 20 21 22 23 24 25 26 27 28 29 30 31 32 33 34 35 36 37 38 39 40 41 42 43 44 45 46 47 48 49 50
000
ASHW40 PHFO 201432
RWRHI

WEATHER ROUNDUP FOR HAWAII
NATIONAL WEATHER SERVICE HONOLULU HI
400 AM HST MON FEB 20 2017

THIS IS AN AUTOMATED REPORT THAT HAS NOT BEEN QUALITY CONTROLLED.

NOTE..."FAIR" INDICATES FEW OR NO CLOUDS BELOW 12,000 FEET WITH NO
SIGNIFICANT WEATHER AND/OR OBSTRUCTIONS TO VISIBILITY.

* - THESE SITES REPORT LIMITED FIELDS

HIZ001>004-201500-
KAUAI-NIIHAU-

CITY           SKY/WX    TMP DP  RH WIND       PRES   REMARKS
LIHUE APT      CLOUDY    69  57  65 NE21      30.20F
PORT ALLEN*      N/A     68 N/A N/A NE13        N/A
POIPU*           N/A     70 N/A N/A NE9G21      N/A
PRINCEVILLE*     N/A     68 N/A N/A E8          N/A
KOKOLE POINT*  NOT AVBL
MOLOAA DAIRY*    N/A     68  55  64 NE3G13      N/A
WAIMEA HTS*    NOT AVBL
PUU OPAE*      NOT AVBL
PUU LUA*       NOT AVBL
MAKAHA RIDGE*    N/A     57  48  72 E2          N/A
$$

HIZ005>011-201500-
OAHU-

CITY           SKY/WX    TMP DP  RH WIND       PRES   REMARKS
HONOLULU       PTCLDY    70  56  61 NE18G25   30.15S
KALAELOA       CLEAR     70  57  63 NE8       30.17R
KANEOHE MCB    NOT AVBL
WHEELER FIELD  FAIR      66  56  70 N7        30.17
BELLOWS*         N/A    N/A N/A N/A NE21G28     N/A
KAHUKU*          N/A    N/A N/A N/A NE8G20      N/A
WHEELER*       NOT AVBL
WAIANAE HARBOR NOT AVBL
DILLINGHAM*    NOT AVBL
KAHUKU TRN*      N/A    N/A N/A N/A W12G24      N/A
KAWAILOA*        N/A     63  54  72 NE14G25     N/A
KII*             N/A     72  57  60 NE21G28     N/A
MAKUA RANGE*     N/A     70  57  64 W9G21       N/A
OAHU FOREST NW NOT AVBL
SCHOFIELD BRK*   N/A     64  57  77 MISG        N/A
SCHOFIELD S*   NOT AVBL
WAIANAE VLY*   NOT AVBL
KUAOKALA*      NOT AVBL
HONOULIUULI*   NOT AVBL
MOKUOLOE IS*   NOT AVBL
PALEHUA*       NOT AVBL
WAIAWA PHB*    NOT AVBL
$$

HIZ012>013-201500-
MOLOKAI-

CITY           SKY/WX    TMP DP  RH WIND       PRES   REMARKS
MOLOKAI AIRPT  MOCLDY    70  59  68 NE10G23   30.15S
KALAUPAPA      NOT AVBL
MAKAPULAPAI*     N/A     72  61  68 E21G32      N/A
MOLOKAI 1*     NOT AVBL
PUU ALII*        N/A     51  51 100 N3G13       N/A
$$

HIZ016-201500-
KAHOOLAWE-

CITY           SKY/WX    TMP DP  RH WIND       PRES   REMARKS
KAHOOLAWE*     NOT AVBL
HAKIOAWA*        N/A     65  59  80 MISG      30.53S
HONOKANAIA*      N/A     70  56  61 VRB20G41  30.05
KANELOA*         N/A     68  59  73 NE20G48   30.15
KEALIALALO*    NOT AVBL
LUA MAKIKA*    NOT AVBL
$$

HIZ014>015-201500-
LANAI-

CITY           SKY/WX    TMP DP  RH WIND       PRES   REMARKS
LANAI CITY       N/A     64  56  75 NE30G46   30.13S
LANAI 1*       NOT AVBL
$$

HIZ017>028-201500-
MAUI-

CITY           SKY/WX    TMP DP  RH WIND       PRES   REMARKS
KAHULUI        CLOUDY    72  60  66 NE22      30.16F
KAPALUA-W MAUI NOT AVBL
HANA AIRPORT   CLOUDY    72  59  64 NE13      30.21R
HANA*            N/A     72 N/A N/A NE9G16      N/A
HALEAKALA SUMM   N/A     37  27  65 W7G37       N/A
MAALAEA BAY*     N/A     70 N/A N/A N21G30      N/A
HALEAKALA*     NOT AVBL
KAUPO GAP*     NOT AVBL
KULA 1*          N/A    N/A N/A N/A E5G10       N/A
$$

HIZ023>026-201500-
BIG ISLAND OF HAWAII COAST AND LOWER SLOPES-

CITY           SKY/WX    TMP DP  RH WIND       PRES   REMARKS
KAILUA KONA    CLOUDY    72  64  76 NE7       30.06S
HILO           MOCLDY    71  60  68 NE12      30.16S
HONOKAA*         N/A     63 N/A N/A VRB1        N/A
KAWAIHAE MWT*    N/A     70 N/A N/A E2          N/A
KAWAIHAE*        N/A     72 N/A N/A VRB3      30.08R
SOUTH POINT*     N/A     63 N/A N/A N8          N/A
UPOLU AIRPORT* NOT AVBL
KAMUELA*       PTSUNNY   57  55  94 NE24      30.18S
HAKALAU*         N/A    N/A N/A N/A W3          N/A
KALOKO-HONOKO*   N/A     68  64  88 E2        30.06R
PALI 2*          N/A     57  52  82 S23G36      N/A
KEALAKOMO*       N/A     72  57  60 NE18G35     N/A
KAUPULEHU*     NOT AVBL
KAPAPALA*        N/A     51  49  91 VRB6        N/A
LOWER KAHUKU*    N/A     46  46 100 N3          N/A
PUHE CS*         N/A     68  55  64 NE3         N/A
PUHO CS*         N/A     69  56  62 E3          N/A
PTA KEAMUKU*     N/A     55  50  82 CALM        N/A
WAIKOLOA*      NOT AVBL
$$

HIZ027>028-201500-
BIG ISLAND OF HAWAII INTERIOR AND SUMMMITS-

CITY           SKY/WX    TMP DP  RH WIND       PRES   REMARKS
BRADSHAW FIELD PTCLDY    45  24  42 SE6       30.37F
MK VISITOR CEN   N/A     43  16  33 N9          N/A
MAUNA KEA*       N/A     25  10  54 SW22        N/A  WCI  10
MAUNA LOA*       N/A    N/A N/A N/A MISG        N/A
MAUNA LOA 1*   NOT AVBL
PTA KIPUKA*      N/A    N/A N/A N/A SE3         N/A
PTA RANGE 17*    N/A    N/A N/A N/A E9          N/A
PTA WEST*        N/A     81  37  21 SE18G26     N/A
NENE CABIN*      N/A     45  14  29 VRB5        N/A
AHUMOA*        NOT AVBL
PTA PORTABLE*  NOT AVBL
PUU MALI*        N/A     52  14  22 SE10        N/A
$$

HIC003-201500-
NORTHWEST ISLANDS-

CITY           SKY/WX    TMP DP  RH WIND       PRES   REMARKS
MIDWAY ISLAND  CLEAR     70  61  73 S18       30.10F
MIDWAY NOS*      N/A     70 N/A N/A MISG      30.09S
FRENCH FRIGATE NOT AVBL
$$

PHZ110>124-180-201500-
BUOY REPORTS

STATION/POSITION TIME  TEMP    WIND        PRES    WAVE   SWELL
                       AIR SEA DIR/SP/G            HT/PER HT/DIR
                 (UTC) (F)     (DEG/KT/KT) (MB)    (FT/S) (FT/D)
BUOY 51001       1410   68 72   70/ 16/ 21 1024.0
BUOY 51101       1350   68 72   70/ 17/ 21 1024.3F  10/12   8/330
BUOY 51100       NOT AVBL
BUOY 51002       1410   76 78   50/ 23/ 27 1017.0
BUOY 51003       1350   75 77   50/ 19/ 23 1018.9F  12/11   7/310
BUOY 51004       1350      77   50/ 19/ 23 1017.9F   6/ 6   3/340
BARBERS PT BUOY  NOT AVBL
WAIMEA BAY BUOY  1402      75                N/A    12/13   8/330
KAILUA BAY BUOY  1404      76                N/A    10/13   7/350
LANAI BUOY       1415      77                N/A     4/13   3/310
BARBERS PT 2     NOT AVBL
PAUWELA MAUI     1409      75                N/A    11/14   8/340
HILO             1412      77                N/A    10/13   7/330
KANEOHE BAY BUOY 1406      76                N/A    10/13   7/350
HANALEI KAUAI    1352      75                N/A    12/13   8/330
KAHULUI HARBOR   1400   72 76   50/  9/ 19 1021.4
HONOLULU HARBOR  1400   70 75   60/  7/ 19 1021.6
KILO NALU        NOT AVBL
HILO HARBOR      1400   72 76   30/ 15/ 20 1021.0
MOKUOLOE         1336   71 75   50/ 13/ 19 1022.0R
NAWILIWILI       1400   70      40/ 12/ 16 1022.2
WHOTS BUOY       NOT AVBL
BUOY 51028       NOT AVBL
$$

......................KEY........................................
  SKY/WX - SKY CONDITIONS/PRESENT WEATHER
  TMP    - TEMPERATURE IN FAHRENHEIT
  DWPT   - DEWPOINT IN FAHRENHEIT
  RH     - RELATIVE HUMIDITY IN PERCENT
  WIND   - DIRECTION AND SPEED /MPH FOR ISLANDS...KTS FOR BUOYS/
  PRES   - MEAN SEA LEVEL PRESSURE IN INCHES OF HG
  VSB    - VISIBILITY IN MILES
  HX     - HEAT INDEX
  WCI    - WIND CHILL INDEX
  VRB    - VARIABLE WIND DIRECTION
  N/A    - NOT AVAILABLE




USA.gov is the U.S. government's official web portal to all federal, state and local government web resources and services.